[[{"header":{"parameterUnit":"m.s-1","parameterCategory":1,"la1":30.2991,"la2":30.254,"lo1":-89.0895,"lo2":-89.0444,"dy":0.0017,"dx":0.0017,"nx":28,"ny":28,"refTime":"2024-02-03T03:00:00:Z","depth":0,"parameterNumber":2,"parameterNumberName":"U-component_of_WINDS"},"data":[0,0,0,0,0,0,0,0,0,0,0,0,0,0,0,0,0,0,0,0,0,0,0,0,0,0,0,0,0,0,0,0,0,0,0,0,0,0,0,0,0,0,0,0,0,0,0,0,0,0,0,0,0,0,0,0,0,0,-9.4753,-9.4765,0,-9.5905,-9.5919,-9.5932,-9.6144,-9.6135,-9.6125,-9.6117,-9.7329,-9.7368,-9.7409,0,0,0,0,0,0,0,0,0,0,0,0,0,-9.277,-9.2805,-9.4752,-9.4766,-9.4781,-9.5903,-9.5919,-9.5935,-9.6146,-9.6134,-9.6123,-9.6112,-9.7315,-9.7363,-9.7413,0,0,0,0,0,0,0,0,0,0,0,0,0,-9.3748,-9.2816,-9.4749,-9.5021,-9.5056,-9.59,-9.592,-9.5939,-9.6148,-9.6134,-9.612,-9.6107,-9.7299,-9.7359,-9.742,-9.8084,0,0,-9.7608,-9.7635,0,0,0,0,0,0,0,0,-9.3692,-9.382,-9.4966,-9.5003,-9.5045,-9.5866,-9.5665,-9.6659,-9.6152,-9.5735,-9.6116,-9.61,-9.6856,-9.6953,-9.7201,-9.814,-9.8192,-9.7613,-9.7651,-9.7677,-9.7695,0,0,0,0,0,0,0,-9.3624,-9.3772,-9.5209,-9.4983,-9.5031,-9.5097,-9.522,-9.5854,-9.6362,-9.577,-9.5788,-9.592,-9.6875,-9.7141,-9.7231,-9.821,-9.7612,-9.7666,-9.7704,-9.7728,-9.9763,-9.9779,0,0,0,0,0,0,-9.3503,-9.3714,-9.5173,-9.5244,-9.4319,-9.5144,-9.5282,-9.5617,-9.6355,-9.6453,-9.5931,-9.5926,-9.7043,-9.7159,-9.7274,-9.8104,-9.7677,-9.7734,-9.777,-9.9746,-9.9767,-9.9785,0,0,0,0,0,0,-9.346,-9.3631,-9.5126,-9.4485,-9.468,-9.5193,-9.5568,-9.5648,-9.5913,-9.6476,-9.6571,-9.6107,-9.7036,-9.7188,-9.7881,-9.8149,-9.7762,-9.7818,-9.9726,-9.9753,-9.9776,-9.9764,0,0,0,0,0,0,-9.3402,-9.3614,-9.3862,-9.4488,-9.4713,-9.5701,-9.5585,-9.568,-9.6016,-9.602,-9.6667,-9.6761,-9.7037,-9.7787,-9.7942,-9.8227,-9.7866,-9.9704,-9.9738,-9.9768,-9.9743,-9.9786,-9.9823,0,0,0,0,0,-9.333,-9.3818,-9.3873,-9.4048,-9.5032,-9.5716,-9.5846,-9.6144,-9.6036,-9.6296,-9.6659,-9.6741,-9.8095,-9.7856,-9.8032,-9.8339,-9.9689,-9.9728,-9.9766,-9.9725,-9.9778,-9.9822,0,0,0,0,0,0,-9.3219,-9.3904,-9.3973,-9.4676,-9.5135,-9.575,-9.6085,-9.619,-9.6696,-9.668,-9.7039,-9.7185,-9.7858,-9.8171,-9.7892,-9.9026,-9.8887,-9.8962,-9.8795,-9.8851,-9.889,-9.88,-9.7918,0,0,0,0,0,-9.3274,-9.3761,-9.434,-9.4905,-9.5131,-9.5568,-9.5878,-9.6068,-9.6562,-9.676,-9.7174,-9.7659,-9.8196,-9.8542,-9.9066,-9.9792,-9.994,-10.0091,-10.0131,-10.0161,-10.0222,-10.0636,-10.0711,-9.9912,-9.9911,-9.9911,0,0,-9.3397,-9.3832,-9.4119,-9.4893,-9.5271,-9.5779,-9.5731,-9.6268,-9.6652,-9.6846,-9.7521,-9.7844,-9.8412,-9.9124,-9.9459,-9.9405,-10.0477,-10.021,-10.023,-10.0276,-10.0683,-10.0758,-10.0825,-9.9938,-9.9933,-9.9929,0,0,-9.3878,-9.4254,-9.4767,-9.5147,-9.5717,-9.6007,-9.613,-9.6734,-9.6951,-9.7634,-9.7792,-9.8261,-9.9175,-9.9573,-9.9896,-10.0539,-10.0635,-10.0702,-10.091,-10.131,-10.1373,-10.143,-10.1663,-10.1741,-10.0761,-10.0761,-10.0761,0,-9.396,-9.4719,-9.5021,-9.5553,-9.5893,-9.6085,-9.6614,-9.6972,-9.7689,-9.7925,-9.7852,-9.9006,-9.9402,-10.0213,-10.0369,-10.0624,-10.0784,-10.0626,-10.1337,-10.1398,-10.1457,-10.1683,-10.1769,-10.0765,-10.0764,-10.0764,-10.0764,0,-9.4795,-9.5322,-9.5671,-9.6347,-9.6729,-9.7256,-9.7649,-9.8001,-9.8162,-9.8462,-9.9162,-9.9645,-10.0271,-10.048,-10.0645,-10.132,-10.1268,-10.1262,-10.1129,-10.1532,-10.175,-10.1839,-10.0771,-10.0769,-10.0768,-10.0767,0,0,-9.523,-9.6071,-9.6194,-9.6506,-9.7154,-9.7573,-9.8117,-9.8721,-9.9018,-9.9512,-9.9981,-10.0753,-10.0754,-10.112,-10.1334,-10.1684,-10.2168,-10.1639,-10.1658,-10.1721,-10.2947,-10.2944,-10.3039,-10.2237,-10.2255,-10.2269,-10.29,0,-9.5789,-9.6749,-9.7041,-9.7852,-9.8347,-9.8543,-9.9019,-9.9474,-9.9773,-10.0247,-10.0583,-10.1124,-10.1082,-10.1305,-10.1661,-10.2031,-10.2419,-10.1992,-10.2687,-10.2707,-10.2533,-10.3153,-10.3152,-10.3722,-10.2987,-10.3002,-10.3012,0,-9.6565,-9.7061,-9.7918,-9.8509,-9.8729,-9.9147,-9.973,-10.0177,-10.0704,-10.0899,-10.1309,-10.1495,-10.2083,-10.1919,-10.2739,-10.2441,-10.2746,-10.2973,-10.3003,-10.3078,-10.288,-10.3245,-10.3912,-10.3996,-10.315,-10.3139,-10.3129,0,-9.6796,-9.7682,-9.831,-9.8572,-9.9277,-9.9569,-9.9879,-10.039,-10.0738,-10.1252,-10.1483,-10.2062,-10.238,-10.283,-10.3172,-10.302,-10.3965,-10.3828,-10.415,-10.4141,-10.4337,-10.4319,-10.506,-10.4534,-10.4533,-10.4531,-10.453,0,-9.7387,-9.7904,-9.8423,-9.8809,-9.94,-9.9738,-10.0317,-10.0639,-10.1094,-10.1556,-10.1767,-10.2198,-10.2624,-10.3116,-10.339,-10.403,-10.4174,-10.4354,-10.442,-10.4334,-10.431,-10.4535,-10.4504,-10.4555,-10.455,-10.4545,-10.4541,0,-9.7741,-9.8109,-9.8807,-9.9418,-9.9585,-9.9993,-10.0522,-10.0912,-10.1221,-10.1803,-10.1961,-10.245,-10.3041,-10.3427,-10.4184,-10.4369,-10.5068,-10.5125,-10.4885,-10.4916,-10.5216,-10.5182,-10.6127,-10.6271,-10.5647,-10.5653,-10.5657,0,-9.8091,-9.8493,-9.9146,-9.9465,-9.9774,-10.0288,-10.0642,-10.0998,-10.136,-10.1995,-10.2311,-10.2913,-10.3412,-10.435,-10.478,-10.5363,-10.5435,-10.5727,-10.5524,-10.5427,-10.5442,-10.5411,-10.5456,-10.5757,-10.5762,-10.5767,-10.577,0,-9.8674,-9.8838,-9.9334,-9.99,-10.0315,-10.078,-10.1246,-10.1499,-10.1937,-10.2337,-10.2938,-10.3325,-10.4096,-10.4695,-10.5317,-10.5651,-10.5789,-10.5831,-10.5937,-10.5851,-10.5695,-10.5784,-10.4972,-10.5807,-10.5803,-10.58,-10.5798,-10.5797,-9.904,-9.9407,-9.9924,-10.0475,-10.0862,-10.1294,-10.169,-10.2049,-10.2553,-10.32,-10.3385,-10.4013,-10.4545,-10.5393,-10.5738,-10.6243,-10.6212,-10.6363,-10.6403,-10.6434,-10.6436,-10.5615,-10.6359,-10.6359,-10.6358,-10.6358,-10.6358,0,-9.9633,-9.9976,-10.0479,-10.1121,-10.1558,-10.1641,-10.2165,-10.2527,-10.3073,-10.3552,-10.4039,-10.4735,-10.532,-10.5798,-10.6403,-10.6717,-10.6795,-10.6864,-10.6843,-10.6919,-10.643,-10.6277,-10.679,-10.679,-10.679,-10.6789,-10.6789,-10.6789,-9.9992,-10.0619,-10.0846,-10.1674,-10.202,-10.2629,-10.2921,-10.3326,-10.3709,-10.4473,-10.4956,-10.5262,-10.5746,-10.6389,-10.6933,-10.706,-10.7274,-10.7329,-10.7469,-10.7002,-10.6953,-10.6907,-10.6765,-10.7372,-10.7373,-10.7918,-10.7923,-10.7926]},{"header":{"parameterUnit":"m.s-1","parameterCategory":1,"la1":30.2991,"la2":30.254,"lo1":-89.0895,"lo2":-89.0444,"dy":0.0017,"dx":0.0017,"nx":28,"ny":28,"refTime":"2024-02-03T03:00:00:Z","depth":0,"parameterNumber":3,"parameterNumberName":"V-component_of_WINDS"},"data":[0,0,0,0,0,0,0,0,0,0,0,0,0,0,0,0,0,0,0,0,0,0,0,0,0,0,0,0,0,0,0,0,0,0,0,0,0,0,0,0,0,0,0,0,0,0,0,0,0,0,0,0,0,0,0,0,0,0,1.2526,1.2536,0,1.353,1.3542,1.3553,1.3814,1.3808,1.3802,1.3796,1.4837,1.487,1.4903,0,0,0,0,0,0,0,0,0,0,0,0,0,1.0846,1.0875,1.2524,1.2537,1.255,1.3528,1.3542,1.3556,1.3815,1.3808,1.38,1.3793,1.4826,1.4866,1.4906,0,0,0,0,0,0,0,0,0,0,0,0,0,1.1685,1.0884,1.2522,1.2797,1.2831,1.3526,1.3543,1.356,1.3817,1.3807,1.3798,1.3789,1.4813,1.4862,1.4911,1.5408,0,0,1.5065,1.5087,0,0,0,0,0,0,0,0,1.1637,1.1746,1.2744,1.2779,1.2819,1.3537,1.3332,1.418,1.3819,1.3443,1.3796,1.3785,1.4413,1.4495,1.4705,1.5457,1.5501,1.5069,1.51,1.5121,1.5136,0,0,0,0,0,0,0,1.1579,1.1705,1.2923,1.2758,1.2804,1.2875,1.2984,1.3494,1.3968,1.3475,1.3496,1.3611,1.4432,1.4656,1.4731,1.5517,1.5068,1.5113,1.5144,1.5163,1.674,1.6751,0,0,0,0,0,0,1.1471,1.1654,1.2891,1.2953,1.2193,1.2912,1.3035,1.3316,1.3963,1.4053,1.3618,1.3619,1.4574,1.4672,1.4769,1.5404,1.5121,1.5168,1.5197,1.6728,1.6742,1.6755,0,0,0,0,0,0,1.1434,1.1579,1.285,1.231,1.2477,1.2951,1.3266,1.3341,1.3565,1.4071,1.4158,1.3759,1.4571,1.4698,1.5249,1.5443,1.5191,1.5237,1.6714,1.6733,1.6749,1.667,0,0,0,0,0,0,1.1385,1.1564,1.1753,1.2312,1.2505,1.3309,1.3277,1.3367,1.365,1.3661,1.4227,1.4312,1.4573,1.5173,1.5299,1.5508,1.5276,1.6699,1.6722,1.6743,1.6657,1.6682,1.6704,0,0,0,0,0,1.1324,1.1691,1.1762,1.191,1.2751,1.332,1.3431,1.3721,1.3664,1.3863,1.4189,1.4294,1.5398,1.5227,1.5372,1.5598,1.6689,1.6716,1.6742,1.6647,1.6677,1.6703,0,0,0,0,0,0,1.1146,1.1769,1.1855,1.2412,1.2811,1.3362,1.3622,1.3742,1.4168,1.4162,1.4507,1.4633,1.5163,1.5435,1.5232,1.6119,1.6045,1.6101,1.5923,1.5957,1.5979,1.5908,1.5318,0,0,0,0,0,1.117,1.1575,1.2099,1.2542,1.2737,1.3143,1.3402,1.3591,1.402,1.4191,1.4557,1.4972,1.5415,1.5699,1.6133,1.6694,1.6828,1.6922,1.6944,1.6961,1.701,1.7339,1.739,1.6842,1.6842,1.6841,0,0,1.1228,1.1618,1.1854,1.2516,1.2847,1.3266,1.3284,1.3724,1.4041,1.4259,1.4805,1.5086,1.5574,1.6135,1.64,1.6378,1.7189,1.6995,1.7004,1.7046,1.7371,1.7423,1.7468,1.686,1.6856,1.6854,0,0,1.1549,1.1879,1.2291,1.2622,1.3122,1.3391,1.3488,1.4025,1.4221,1.4771,1.4947,1.5329,1.608,1.6424,1.6696,1.7151,1.7268,1.7282,1.7408,1.7724,1.7768,1.7808,1.7982,1.8039,1.7326,1.7326,1.7326,0,1.156,1.2193,1.2486,1.2922,1.3213,1.3425,1.3849,1.4157,1.4774,1.4973,1.4936,1.589,1.6231,1.6881,1.6992,1.7201,1.7333,1.7224,1.7736,1.778,1.7822,1.7993,1.8056,1.7325,1.7325,1.7325,1.7325,0,1.2187,1.2623,1.2895,1.3486,1.3807,1.4232,1.4597,1.4887,1.5048,1.5322,1.5886,1.6303,1.683,1.6995,1.7156,1.7673,1.7644,1.7666,1.7602,1.7869,1.8036,1.8102,1.7324,1.7324,1.7325,1.7325,0,0,1.2429,1.3178,1.3274,1.3549,1.4118,1.4465,1.4902,1.5415,1.5663,1.608,1.6465,1.7096,1.7123,1.7432,1.7634,1.7909,1.8258,1.7902,1.7919,1.7964,1.8865,1.8853,1.8923,1.8333,1.8346,1.8357,1.8829,0,1.2831,1.362,1.39,1.4554,1.4968,1.5176,1.556,1.5953,1.6221,1.6616,1.6912,1.736,1.7354,1.7545,1.7825,1.8154,1.8445,1.8123,1.8705,1.8722,1.8588,1.9009,1.8997,1.9422,1.8894,1.8905,1.8913,0,1.3406,1.3833,1.4527,1.5053,1.5237,1.5576,1.6074,1.6444,1.6897,1.7074,1.7419,1.7602,1.8077,1.7974,1.8638,1.8413,1.8666,1.8864,1.8888,1.8964,1.8842,1.9108,1.9564,1.9632,1.9016,1.9008,1.9001,0,1.353,1.4276,1.4792,1.5019,1.564,1.5876,1.6147,1.659,1.6883,1.7318,1.7514,1.7996,1.8265,1.8637,1.8949,1.8843,1.959,1.951,1.9759,1.9752,1.9917,1.9905,2.0432,2.0057,2.0056,2.0054,2.0053,0,1.3957,1.4377,1.4857,1.5175,1.5655,1.5972,1.644,1.6724,1.7117,1.75,1.7705,1.8061,1.8445,1.8852,1.9097,1.9618,1.9733,1.9896,1.9959,1.9886,1.9867,2.0066,2.005,2.0072,2.0068,2.0065,2.0062,0,1.4181,1.4517,1.5095,1.5636,1.5782,1.6113,1.658,1.6901,1.7174,1.7657,1.7788,1.8223,1.8714,1.9058,1.9687,1.9853,2.0418,2.0471,2.0266,2.03,2.0534,2.0512,2.1219,2.1334,2.0866,2.087,2.0873,0,1.4437,1.4766,1.5342,1.5613,1.5883,1.6313,1.6615,1.694,1.7246,1.779,1.8047,1.855,1.8972,1.9746,2.0123,2.0608,2.0683,2.0897,2.0758,2.0677,2.0704,2.0685,2.0726,2.0921,2.0925,2.0928,2.093,0,1.4862,1.5013,1.5437,1.5922,1.6275,1.6673,1.7073,1.7283,1.768,1.8014,1.8517,1.8843,1.9488,1.999,2.0511,2.0796,2.0936,2.0968,2.1055,2.0991,2.0864,2.0949,2.0337,2.0954,2.0952,2.095,2.0949,2.0948,1.5122,1.5427,1.5883,1.6351,1.6686,1.7056,1.7387,1.7703,1.8128,1.8678,1.8843,1.9369,1.9821,2.0536,2.0827,2.1248,2.1235,2.1355,2.139,2.1418,2.1423,2.0783,2.1342,2.1342,2.1341,2.1341,2.1341,0,1.5569,1.5872,1.6298,1.6853,1.7223,1.7312,1.7761,1.8068,1.8527,1.8934,1.9345,1.9928,2.0416,2.0828,2.1335,2.1593,2.167,2.1717,2.1709,2.1775,2.1399,2.128,2.1647,2.1647,2.1647,2.1647,2.1646,2.1646,1.5846,1.6373,1.6578,1.7276,1.7578,1.8094,1.8344,1.869,1.9019,1.9659,2.0066,2.0329,2.0744,2.1282,2.1737,2.1846,2.203,2.2064,2.219,2.1834,2.1799,2.1766,2.1658,2.2097,2.2098,2.2534,2.2537,2.254]}]]